Find Starlink 31950

NORAD ID: 59863 Int'l Des: 2024-098 Owner: SPXS Country: US Constellation: starlink operational
LEOCIRCULAR

現在のビュー

3D地球を読み込み中...

About Starlink 31950

Starlink 31950 (NORAD 59863) is a starlink constellation satellite (v2 mini) launched May 24, 2024 by SPXS of US. It operates in LEO, CIRCULAR orbit with a mass of 730.00 kg.

Starlink 31950について

説明を読み込み中...

次回通過

Passes for default location (London). Set your location on the main map for personalized predictions.

高度履歴

Loading altitude history...

軌道要素

1 59863U 24098F 26170.42139446 .00000061 00000-0 11758-4 0 9996
2 59863 43.0042 63.5609 0001231 270.5733 89.4978 15.27578347117406
Epoch: Jun 19, 2026 • Age: 21 hours

現在のステータス

高度 486.2 km
速度 7.63 km/s
衛星直下点 39.28°N, 164.39°E
打ち上げ日 May 24, 2024
運用期間 2 years
タイプ internet

技術仕様

分類 Payload
質量 730.00 kg
乾燥質量 700.00 kg
総質量 730.00 kg
長さ 0.30 m
直径 4.10 m
スパン 29.00 m
形状 Box + pan
製造者 SPXS
バスタイプ Starlink V2M
フェーズステータス In Orbit
所有者/国 SPXS/US

Most Searched